Lapse_Rate
4.1 4.1 4.1 4.0 4.0 4.8 5.1 4.7 4.5 4.4 4.3 4.2 4.2 4.1 4.3 4.4 4.6 5.0 5.0 4.5 4.2 4.3 4.2 4.1 4.1 4.4 4.5 4.6 4.6 4.7 4.8 4.9 5.1 5.4 5.6 5.8 5.8 6.4 6.6 7.1 7.3 7.5 7.8 7.7 7.8 7.8 7.9 7.2 7.2 7.2 7.2 6.8 6.8 6.8
3.9 3.6 4.0 4.7 4.9 4.7 4.4 4.3 4.4 4.3 4.2 4.2 4.2 4.4 4.6 5.0 5.0 4.8 4.6 4.4 4.2 4.2 4.3 4.1 4.2 4.4 4.5 4.6 4.7 4.7 5.0 5.1 5.3 5.4 5.6 5.8 5.9 6.2 6.4 6.9 7.0 7.2 7.1 7.3 7.5 7.4 7.2 7.2 7.2 7.1 6.9 6.6 6.7 6.7
4.0 4.7 4.9 4.5 4.2 4.1 4.2 4.3 4.2 4.2 4.3 4.5 4.5 4.8 5.2 5.2 5.0 4.6 4.5 4.4 4.2 4.0 4.0 3.9 4.0 4.2 4.4 4.5 4.7 4.9 5.0 5.2 5.4 5.5 5.7 5.9 5.9 6.1 6.2 6.4 6.5 6.6 6.8 6.8 7.1 7.2 7.2 7.1 6.9 6.7 6.7 6.7 6.7 6.8
5.0 4.8 4.6 4.3 4.2 4.3 4.3 4.2 4.2 4.4 4.5 4.7 4.7 5.1 5.3 5.2 4.9 4.9 4.7 4.5 4.1 4.1 4.2 4.1 4.1 4.3 4.4 4.5 4.7 4.9 5.0 5.1 5.2 5.4 5.6 5.7 5.7 6.1 5.9 6.2 6.3 6.5 6.5 6.7 6.9 6.9 6.9 6.8 6.8 7.1 6.9 6.8 6.7 6.7
4.9 4.4 4.2 4.1 4.2 4.3 4.1 4.2 4.3 4.4 4.5 4.8 5.0 5.2 5.2 5.2 5.1 5.0 4.8 4.4 4.2 4.4 4.5 4.2 4.1 4.3 4.4 4.5 4.7 4.8 4.9 5.0 5.2 5.3 5.5 5.3 5.8 5.8 5.8 6.3 6.9 6.6 6.7 6.8 7.0 6.8 6.8 6.8 7.0 7.0 6.8 6.7 6.5 6.4
4.3 4.2 4.1 4.2 4.2 4.2 4.2 4.3 4.3 4.5 4.9 5.2 5.4 5.3 5.3 5.1 4.9 4.6 4.4 4.1 4.2 4.5 4.5 4.2 4.2 4.3 4.4 4.5 4.7 4.7 4.7 4.8 4.8 5.1 5.1 5.2 5.6 5.5 5.3 6.1 6.3 6.5 6.7 6.7 6.6 6.8 6.7 6.9 7.0 7.0 6.9 6.8 6.7 6.6
4.2 4.1 4.0 4.1 4.1 4.0 4.0 4.2 4.6 4.6 5.0 5.1 5.2 5.2 5.2 4.9 4.7 4.7 4.5 4.5 4.3 4.5 4.6 4.6 4.3 4.4 4.4 4.5 4.6 4.5 4.5 4.7 4.6 4.7 4.9 4.6 4.5 5.1 5.0 5.7 6.2 6.2 6.5 6.6 6.8 6.7 6.7 6.7 6.9 7.0 7.0 6.9 6.8 6.7
4.0 3.9 3.9 3.8 3.7 3.9 4.1 4.4 4.6 4.8 5.0 5.1 5.1 5.1 4.9 4.8 4.6 4.5 4.7 4.6 4.6 4.6 4.8 4.8 4.4 4.4 4.5 4.6 4.3 4.3 4.3 4.5 4.6 4.5 4.6 4.8 4.4 4.6 5.3 6.5 6.3 6.3 6.5 6.6 6.7 6.7 6.7 6.8 6.8 6.8 6.7 6.6 6.5 6.4
3.9 3.8 3.8 3.8 3.9 4.0 4.2 4.5 4.7 4.8 4.9 5.0 5.0 4.9 4.7 4.7 4.6 4.4 4.6 4.7 4.8 4.9 5.0 4.9 5.0 4.9 4.8 4.6 4.3 4.1 4.1 4.2 4.4 4.6 4.3 4.5 4.4 4.9 6.1 5.9 5.9 6.0 6.1 6.2 6.4 6.4 6.5 6.7 6.7 6.7 6.7 6.6 6.5 6.5
3.9 3.9 3.9 3.9 3.9 3.8 4.1 4.7 4.8 4.7 4.8 4.8 4.7 4.6 4.3 4.5 4.5 4.6 4.6 4.8 5.0 5.0 5.1 5.1 5.2 5.3 4.9 4.5 4.1 4.1 4.1 4.1 4.0 4.2 4.5 4.7 5.5 5.9 5.9 6.2 6.2 6.0 5.9 6.0 6.2 6.3 6.5 6.6 6.6 6.6 6.7 6.7 6.7 6.8
4.1 4.0 3.8 3.7 3.9 4.2 4.4 4.7 4.8 4.7 4.6 4.7 4.6 4.5 4.5 4.5 4.6 4.8 4.9 5.0 5.0 5.0 4.9 5.0 5.0 5.0 4.6 4.2 4.0 4.1 4.1 4.2 4.0 4.4 4.3 4.7 5.3 5.9 5.9 6.0 6.1 6.1 6.0 6.0 6.1 6.2 6.3 6.5 6.5 6.6 6.6 6.7 6.8 6.9
4.0 4.0 4.0 4.0 4.1 4.2 4.5 4.7 4.8 4.6 4.4 4.4 4.5 4.4 4.6 4.7 4.8 4.8 4.8 4.9 4.9 4.9 4.9 4.7 4.6 4.8 4.5 4.3 4.1 4.2 4.1 4.2 4.0 4.3 4.5 4.6 5.9 5.9 5.9 6.0 5.9 5.9 5.9 6.0 6.0 6.0 6.1 6.2 6.4 6.5 6.6 6.8 6.8 6.9
4.2 4.1 3.9 4.1 4.1 4.2 4.4 4.5 4.6 4.6 4.4 4.2 4.3 4.4 4.8 4.9 4.9 4.9 5.0 4.9 4.9 4.9 5.0 4.9 4.8 4.6 4.3 4.3 4.3 4.3 4.1 3.9 4.2 4.4 4.5 5.9 6.0 6.0 6.0 5.9 5.9 5.8 5.8 5.9 6.0 6.0 6.0 6.1 6.2 6.3 6.5 6.6 6.8 6.9
4.0 4.0 4.1 4.0 4.1 4.3 4.4 4.6 4.5 4.3 4.2 4.3 4.4 4.7 4.9 5.0 5.1 5.2 5.2 5.2 5.1 5.1 4.9 4.7 4.6 4.4 4.4 4.3 4.4 4.2 4.2 4.2 4.3 4.5 5.4 5.9 5.9 5.8 5.8 5.8 5.8 5.7 5.8 5.8 5.8 5.8 5.8 5.8 5.9 6.0 6.2 6.4 6.6 6.8
4.0 4.0 3.9 4.0 4.3 4.3 4.4 4.5 4.3 4.1 4.1 4.3 4.7 4.9 5.0 5.3 5.3 5.3 5.2 5.1 5.0 5.0 4.8 4.5 4.4 4.5 4.4 4.3 4.5 4.3 4.3 4.2 4.6 5.4 5.7 5.7 5.7 5.7 5.6 5.6 5.6 5.6 5.6 5.7 5.7 5.7 5.7 5.6 5.7 5.7 5.8 6.1 6.2 6.7
3.6 3.3 3.7 4.1 4.6 4.5 4.4 4.4 4.2 4.1 4.1 4.4 4.8 5.0 5.1 5.2 5.3 5.2 5.2 5.1 4.9 4.7 4.3 4.2 4.2 4.3 4.4 4.4 4.2 4.4 4.3 5.1 5.9 5.7 5.5 5.5 5.5 5.5 5.5 5.6 5.6 5.5 5.6 5.6 5.6 5.5 5.5 5.5 5.6 5.6 5.7 5.9 6.0 6.4
3.2 3.9 4.0 4.3 4.5 4.4 4.4 4.2 4.1 4.0 4.1 4.3 4.8 5.2 5.2 5.3 5.2 5.1 5.0 5.0 4.9 4.6 4.4 4.3 4.4 4.4 4.4 4.5 4.4 4.5 5.5 5.7 5.7 5.5 5.4 5.4 5.4 5.4 5.5 5.5 5.4 5.5 5.6 5.6 5.6 5.4 5.4 5.5 5.5 5.7 5.8 5.9 6.0 6.2
3.9 4.1 3.9 3.9 4.3 4.5 4.0 4.0 3.8 3.8 4.2 4.5 4.9 5.4 5.4 5.2 5.2 5.1 5.0 5.1 5.1 4.9 4.6 4.4 4.5 4.5 5.3 5.2 5.6 5.8 5.6 5.5 5.5 5.4 5.4 5.4 5.5 5.4 5.5 5.5 5.5 5.7 5.7 5.6 5.5 5.4 5.5 5.6 5.6 6.0 5.9 6.0 6.1 6.3
4.4 4.3 3.9 4.2 4.1 3.9 3.6 3.5 3.7 4.1 4.5 4.7 5.0 5.3 5.3 5.2 5.0 5.0 5.1 4.9 4.9 4.9 4.7 4.5 4.4 5.1 5.8 5.7 5.6 5.5 5.6 5.6 5.6 5.5 5.5 5.5 5.5 5.6 5.6 5.5 5.8 6.0 6.0 5.9 5.8 5.6 5.5 5.6 5.7 5.9 5.9 6.0 6.2 6.4
4.2 4.2 3.9 3.8 3.7 3.6 3.3 3.3 4.2 4.2 4.5 4.8 5.0 5.1 5.2 5.1 4.9 4.8 4.7 4.7 4.8 4.7 4.6 4.7 5.8 6.3 5.8 5.6 5.5 5.6 5.6 5.4 5.5 5.7 5.9 5.8 5.6 5.8 5.8 5.8 6.1 6.2 6.3 6.2 6.2 6.0 5.9 5.8 5.8 6.0 5.9 6.1 6.3 6.3
4.3 4.3 4.1 3.9 3.8 3.6 3.3 3.8 4.1 4.3 4.5 4.4 4.9 5.1 5.1 5.2 5.2 4.9 4.7 4.5 4.3 4.8 5.3 5.9 6.1 5.8 5.4 5.3 5.5 5.5 5.6 5.6 5.7 5.7 5.8 6.1 6.1 5.9 5.9 6.0 6.2 6.3 6.3 6.3 6.2 6.2 6.1 5.9 5.9 6.0 6.0 6.2 6.3 6.3
4.3 4.1 4.0 4.0 3.8 3.7 3.6 3.8 3.9 4.3 4.4 4.6 4.7 4.8 4.9 5.0 4.9 4.6 4.3 4.3 5.0 5.8 6.0 6.0 5.8 5.5 5.3 5.5 5.4 5.6 5.8 5.8 5.8 5.8 5.9 6.1 6.2 6.1 6.1 6.2 6.3 6.4 6.5 6.5 6.3 6.2 6.1 5.9 5.9 6.0 6.0 6.1 6.2 6.3
4.5 4.4 4.2 4.1 3.9 3.7 3.4 3.8 3.6 3.9 4.1 4.3 4.6 4.5 4.7 4.8 4.8 4.6 4.1 5.0 5.8 6.1 5.8 5.7 5.7 5.5 5.7 5.8 5.8 5.8 5.8 5.8 5.8 5.9 6.0 6.0 6.0 6.0 6.2 6.2 6.3 6.5 6.6 6.5 6.4 6.2 6.1 6.0 6.1 6.2 6.1 6.1 6.2 6.2
4.3 4.4 4.5 4.3 3.9 3.3 3.0 3.6 4.1 3.9 4.0 4.2 4.2 4.4 4.6 4.6 4.7 4.4 4.8 5.9 6.2 5.9 5.7 5.8 5.7 6.0 6.1 6.1 6.1 5.9 5.9 5.8 5.8 5.9 6.0 6.0 5.9 5.9 6.0 6.0 6.2 6.4 6.5 6.5 6.4 6.4 6.3 6.2 6.1 6.1 6.1 6.1 6.1 6.2
4.7 4.7 4.2 3.6 3.3 3.0 3.1 3.7 4.0 4.0 4.4 4.8 4.2 4.2 4.4 4.6 4.5 4.4 5.5 6.5 6.1 5.9 6.1 6.3 6.4 6.4 6.3 6.2 6.2 6.0 5.9 5.8 5.8 5.8 5.8 5.8 5.8 5.9 5.9 6.1 6.2 6.3 6.4 6.4 6.4 6.4 6.3 6.2 6.2 6.2 6.2 6.0 6.0 6.1
4.9 4.4 3.9 3.7 3.4 3.4 3.5 3.9 4.3 4.7 4.8 4.4 4.3 4.2 4.6 4.3 4.1 4.7 6.4 6.5 6.2 6.4 6.4 6.4 6.2 6.2 6.2 6.2 6.0 5.9 5.8 5.7 5.7 5.7 5.8 5.9 5.9 5.9 5.9 6.0 6.1 6.3 6.4 6.4 6.2 6.1 6.1 6.2 6.2 6.1 6.0 5.9 6.0 5.9
4.8 4.2 3.8 3.8 3.7 4.0 3.9 4.4 4.8 4.8 4.7 4.7 5.0 5.0 4.6 4.5 4.8 5.9 6.5 6.4 6.5 6.5 6.4 6.4 6.4 6.4 6.2 6.1 6.0 5.9 5.8 5.8 5.8 5.9 6.0 6.0 6.0 5.9 5.9 6.0 6.2 6.3 6.3 6.2 6.0 6.0 6.0 6.0 5.9 5.8 5.7 5.8 5.8 5.7
4.7 4.4 4.4 4.5 4.5 4.5 4.6 5.1 5.0 5.0 4.9 5.0 5.3 5.2 5.2 5.3 6.0 6.4 6.3 6.6 6.5 6.3 6.4 6.4 6.2 6.2 6.1 6.1 6.1 6.0 5.9 5.9 5.9 5.9 6.0 6.0 6.0 6.0 6.1 6.2 6.3 6.3 6.2 6.2 6.1 6.0 5.8 5.8 5.6 5.5 5.5 5.5 5.5 5.4
4.9 4.7 4.5 4.6 4.8 4.6 4.6 5.1 5.5 5.5 5.9 6.0 6.1 6.1 5.9 6.3 6.3 6.1 6.3 6.4 6.3 6.2 6.2 6.2 6.2 6.2 6.2 6.2 6.1 6.0 5.9 5.9 5.9 6.0 6.1 6.2 6.2 6.1 6.2 6.3 6.3 6.4 6.3 6.1 5.9 5.7 5.6 5.4 5.2 5.2 5.2 5.2 5.2 5.2
4.9 5.1 4.9 4.8 4.9 4.9 5.3 6.2 6.4 6.5 6.4 6.1 5.9 6.0 6.1 6.4 6.4 6.2 6.2 6.3 6.2 6.1 6.1 6.3 6.3 6.3 6.3 6.3 6.2 6.1 6.1 6.1 6.1 6.1 6.2 6.2 6.2 6.3 6.3 6.4 6.5 6.5 6.4 6.1 5.8 5.5 5.3 5.2 5.2 5.1 5.0 5.0 5.0 5.1
5.6 5.4 5.4 5.4 5.5 5.8 6.5 6.8 6.7 6.2 6.2 6.2 6.3 6.3 6.5 6.5 6.5 6.4 6.4 6.4 6.4 6.5 6.5 6.5 6.5 6.5 6.5 6.4 6.3 6.2 6.2 6.2 6.2 6.2 6.2 6.2 6.3 6.4 6.5 6.7 6.7 6.4 6.3 6.2 6.0 5.5 5.3 5.2 5.2 5.1 5.1 5.1 5.1 5.2
6.2 6.0 6.1 6.1 6.0 6.4 6.8 6.8 6.8 6.5 6.3 6.4 6.4 6.5 6.7 6.7 6.6 6.7 6.7 6.7 6.7 6.8 6.9 6.7 6.7 6.6 6.4 6.4 6.3 6.2 6.2 6.3 6.3 6.2 6.3 6.3 6.5 6.7 6.7 6.6 6.5 6.3 6.2 6.1 5.8 5.5 5.3 5.3 5.2 5.3 5.3 5.3 5.3 5.3
6.5 6.4 6.6 6.4 6.2 6.3 6.6 6.9 6.8 6.5 6.5 6.5 6.6 6.7 6.8 6.7 6.6 6.8 6.9 7.2 7.3 7.2 7.1 6.8 6.7 6.6 6.5 6.4 6.3 6.3 6.3 6.3 6.3 6.3 6.5 6.7 6.8 6.7 6.7 6.6 6.5 6.4 6.3 6.1 5.6 5.4 5.4 5.4 5.4 5.5 5.6 5.5 5.5 5.4
Wind_Speed
35 36 35 35 34 33 32 31 29 28 27 25 24 22 22 19 11 5 6 4 2 3 9 4 4 7 7 4 4 3 3 2 2 3 1 2 1 3 2 1 4 3 4 3 3 3 2 13 7 6 4 4 7 9
35 35 35 34 33 32 31 30 28 27 26 24 23 21 19 18 14 8 5 6 7 5 6 3 2 5 5 6 8 2 4 3 2 2 1 1 2 2 1 2 3 2 1 3 2 2 3 5 6 5 5 5 5 7
35 34 33 33 32 31 29 28 27 25 24 24 22 20 18 14 10 6 7 4 4 4 5 4 4 2 0 3 2 3 3 3 3 2 1 1 2 1 2 3 3 4 3 3 2 3 5 4 4 5 4 2 2 3
34 33 32 31 30 30 28 27 25 24 23 22 21 19 18 16 12 10 5 3 4 4 4 4 2 4 3 5 6 7 10 6 5 1 2 1 2 2 2 4 7 6 2 6 8 7 6 2 6 6 2 2 0 2
32 32 31 30 29 27 26 25 23 22 22 21 20 18 16 16 18 17 9 4 4 1 3 6 5 2 4 6 9 8 7 4 3 1 0 2 1 3 3 4 8 7 9 6 6 3 6 9 7 4 3 4 1 3
31 30 29 28 28 27 25 24 22 21 20 19 19 17 16 14 9 3 3 2 2 2 3 5 3 6 6 7 9 8 5 3 2 1 2 3 1 3 4 5 5 6 7 8 7 1 7 8 7 3 4 3 2 3
29 29 27 27 27 25 24 22 21 20 19 18 17 16 14 8 4 3 1 4 4 1 2 5 5 4 7 8 4 4 4 2 3 2 4 7 5 4 7 13 16 6 8 8 7 5 8 3 5 3 4 3 3 5
27 27 27 26 25 24 23 21 20 18 17 17 16 15 15 16 10 4 5 4 3 2 2 4 4 6 6 4 4 3 4 3 4 3 1 5 2 4 5 10 9 8 8 9 8 7 6 4 3 3 3 5 8 9
27 26 26 26 24 23 22 20 18 16 16 16 17 13 3 2 2 3 3 2 4 2 3 2 7 5 4 3 3 3 3 3 2 4 4 3 4 6 10 8 6 5 5 4 5 5 4 4 5 5 6 8 10 11
26 26 25 24 24 22 20 18 16 15 15 16 3 2 2 3 9 11 2 0 2 2 1 2 2 5 6 4 3 4 2 2 2 3 2 4 7 15 14 13 10 7 6 5 6 6 5 5 4 5 7 7 8 9
26 26 25 24 22 21 19 16 16 17 9 2 2 2 5 3 2 1 1 2 2 2 2 2 3 8 1 6 5 2 2 2 2 2 3 3 3 4 2 4 4 7 5 6 3 1 1 1 3 5 7 7 7 9
26 25 24 23 22 20 17 16 14 3 2 3 5 5 3 3 2 2 2 2 3 3 4 5 5 3 4 1 2 3 2 2 3 1 3 3 3 2 2 2 4 3 4 5 4 4 2 1 1 4 5 5 6 7
26 25 24 23 22 20 15 10 6 13 10 3 2 4 3 2 4 5 6 3 4 6 5 7 7 4 3 2 2 3 3 3 0 3 3 4 1 2 3 4 4 4 5 5 5 4 3 3 1 2 3 3 4 6
25 25 24 23 22 19 17 16 15 5 1 1 3 4 4 4 4 3 3 4 4 5 9 7 5 3 2 3 2 4 2 2 3 3 4 3 3 3 5 5 6 7 7 8 7 7 5 3 2 2 2 1 2 2
26 24 24 23 24 20 17 15 11 3 1 1 2 3 5 1 1 2 2 4 3 7 8 5 4 2 3 3 3 3 4 4 5 4 2 1 1 3 5 7 7 7 6 8 8 7 5 5 5 4 4 3 2 2
26 21 13 26 25 22 19 12 4 1 1 2 3 2 2 3 4 3 5 4 5 6 4 2 3 3 3 3 4 6 3 6 3 3 2 3 4 4 5 6 7 7 8 8 8 8 7 7 6 5 4 3 3 3
21 2 25 29 26 21 11 3 2 3 2 2 2 3 3 2 2 4 6 6 6 6 4 3 5 4 4 3 4 4 5 2 3 3 3 4 6 5 4 5 4 6 8 9 9 9 9 7 7 7 6 5 5 3
1 15 35 32 23 10 2 1 2 2 4 4 3 3 4 3 3 3 5 6 6 5 4 2 3 5 5 5 4 4 5 4 4 4 4 5 6 6 4 6 6 7 9 9 9 9 9 9 8 6 5 4 4 4
11 28 38 32 13 4 4 4 2 2 5 2 3 4 3 2 5 2 4 6 3 2 3 3 5 5 8 4 4 3 3 3 3 4 4 5 5 4 5 7 7 8 9 8 8 7 7 11 8 6 5 4 4 3
29 38 36 23 4 3 4 3 2 3 3 3 3 4 3 3 3 4 6 5 6 3 4 5 6 6 4 4 4 4 3 3 3 5 6 5 5 7 7 7 7 8 7 6 7 6 7 7 6 5 6 5 4 4
17 17 24 7 2 1 2 4 4 3 2 3 2 5 3 3 4 4 5 7 5 4 5 7 8 8 5 4 3 4 4 5 6 7 8 8 6 6 6 6 6 5 5 6 6 6 6 7 6 6 5 5 4 3
3 18 3 1 2 3 2 4 2 3 3 2 3 4 3 3 3 5 5 6 5 6 6 7 9 8 9 11 9 9 9 8 8 6 5 5 6 6 5 5 5 6 6 5 5 5 6 5 5 6 6 5 4 4
14 3 3 3 3 5 3 4 6 5 5 3 3 3 3 3 3 6 4 4 4 5 8 10 13 12 11 11 9 8 8 8 6 6 5 5 4 4 5 5 5 5 5 4 4 4 5 6 7 6 6 6 5 4
8 3 4 7 6 6 5 6 3 4 4 4 4 3 3 3 5 3 4 4 4 5 7 12 8 7 6 5 6 6 6 6 5 3 3 3 4 4 3 4 3 3 4 3 3 4 5 6 7 7 7 7 6 6
6 6 5 6 5 6 7 7 6 5 5 7 7 4 3 4 3 3 4 3 5 6 7 7 6 7 7 5 4 4 5 5 5 4 3 3 3 3 3 3 4 4 3 4 5 6 6 6 7 7 8 8 8 8
7 8 9 11 8 7 8 8 10 6 5 7 6 2 3 3 4 6 3 3 3 4 4 6 7 7 6 5 5 5 6 5 3 3 2 4 4 5 5 5 5 4 5 5 5 7 7 8 8 10 9 9 8 8
8 6 4 4 5 6 6 3 6 4 7 6 4 7 5 4 6 4 2 3 3 3 2 3 6 6 5 6 4 4 5 5 4 1 1 2 4 4 5 5 6 3 4 7 6 7 8 9 9 10 9 7 8 8
4 8 10 10 5 4 6 7 7 9 5 5 7 7 7 6 4 2 3 2 2 3 3 3 3 2 3 5 5 5 3 2 1 1 3 4 5 4 5 5 5 3 3 5 6 6 6 7 8 9 10 9 8 8
4 7 8 8 4 4 6 6 7 6 4 6 8 5 4 3 1 2 2 3 3 4 4 5 3 2 3 3 3 3 3 3 4 6 8 6 4 3 3 4 4 4 4 4 6 5 8 6 7 8 9 7 7 7
6 9 5 7 7 6 7 6 4 3 3 3 2 1 2 2 1 1 3 4 5 5 3 2 4 5 4 4 4 3 3 4 4 5 6 6 3 1 2 2 3 3 4 5 5 5 6 6 6 5 7 6 7 7
9 5 5 5 6 5 2 5 2 2 3 3 1 2 3 1 1 3 5 4 4 3 4 5 5 5 5 5 4 3 3 3 2 3 3 3 4 5 5 5 4 3 3 5 6 7 7 7 7 8 10 10 11 10
6 8 7 6 4 3 4 6 6 5 6 4 4 3 2 2 4 4 5 6 6 6 8 6 6 6 6 3 3 2 2 2 2 3 5 5 6 7 6 6 5 5 6 7 7 7 9 10 8 9 10 12 11 12
3 3 3 4 4 7 4 5 6 5 3 4 4 4 4 3 7 2 3 5 4 4 4 5 4 4 6 6 4 3 2 2 3 6 8 9 10 9 7 6 6 6 7 8 8 8 10 11 9 10 10 10 11 11
Wind_Direction
116 117 117 116 118 118 115 112 110 108 107 108 107 110 110 110 111 97 88 47 106 99 138 184 167 156 136 174 151 136 171 61 59 68 33 95 353 55 254 326 333 339 330 11 311 337 29 2 355 30 324 322 1 358
115 116 115 114 112 109 109 111 109 108 106 107 106 103 105 105 101 105 103 94 68 83 102 101 61 38 69 97 125 78 88 112 126 100 161 163 173 180 289 294 210 258 335 322 283 351 306 314 292 315 305 329 1 346
113 112 111 110 110 112 111 109 109 109 107 103 101 99 95 92 81 95 113 108 85 100 106 158 168 150 93 115 57 122 108 107 105 39 95 58 221 228 245 259 264 206 193 249 282 188 296 319 293 267 247 278 346 348
109 109 109 111 111 110 109 109 108 107 104 103 102 99 98 102 96 104 100 79 81 124 127 129 159 146 136 167 131 66 110 102 101 126 94 258 268 199 269 314 267 276 205 264 272 271 321 210 356 333 273 204 226 6
112 114 115 115 113 112 111 111 110 111 112 110 107 101 96 97 99 94 87 71 50 303 116 130 142 121 157 161 143 139 136 141 124 124 164 266 276 255 230 279 256 225 245 235 270 336 302 321 340 323 243 218 227 321
116 116 117 116 114 114 114 115 115 115 113 113 112 107 101 105 102 103 66 94 68 299 126 145 93 153 143 148 144 159 164 178 174 199 231 243 280 259 271 271 265 241 247 261 272 293 295 306 308 274 267 248 233 272
120 120 120 119 117 118 118 116 114 115 114 113 110 106 102 90 51 46 54 100 150 256 118 123 133 130 139 132 127 149 172 175 256 243 237 260 242 211 261 261 267 271 251 253 252 273 271 297 324 316 280 288 244 289
126 126 125 123 122 119 116 113 114 114 113 111 108 106 93 96 118 109 68 95 324 103 73 124 115 150 199 151 139 160 163 189 200 260 200 247 197 235 258 266 274 271 269 251 242 237 284 326 315 311 300 299 299 306
133 131 129 127 124 120 115 113 113 116 115 114 110 107 101 45 86 104 151 199 44 33 111 160 152 146 183 117 110 151 204 209 98 241 237 245 235 229 250 277 279 261 238 253 219 224 232 265 305 315 317 313 312 318
138 134 132 130 128 125 118 111 113 117 121 119 126 91 82 69 109 134 205 67 32 43 56 118 140 120 181 162 141 147 184 243 245 179 129 241 257 260 268 266 266 277 265 217 225 229 235 262 316 335 337 334 325 324
143 139 138 137 134 127 123 116 117 114 121 137 93 68 96 106 217 194 140 161 148 161 161 110 148 134 131 168 143 202 160 180 251 119 259 253 254 257 282 288 260 230 220 214 246 142 125 11 330 330 331 331 330 334
148 145 144 141 138 134 127 124 133 132 97 78 88 104 140 213 184 171 157 144 207 160 153 149 147 92 118 172 159 169 197 183 248 112 251 255 242 246 272 206 171 174 175 173 182 174 156 142 347 328 330 338 345 342
153 151 152 147 143 138 130 134 144 111 130 133 128 135 192 165 199 207 176 182 179 173 159 156 131 136 141 183 105 165 185 221 195 229 237 243 233 232 225 187 186 184 185 186 184 186 191 186 192 319 344 11 333 340
160 158 156 153 147 137 132 124 116 111 266 193 158 171 219 178 229 199 184 134 112 146 149 148 126 134 131 157 139 175 148 207 239 231 236 244 236 219 211 198 203 204 206 217 219 216 210 206 183 161 140 202 262 314
163 162 158 154 147 139 132 121 107 56 4 215 203 223 204 141 148 154 132 145 130 151 143 134 112 140 129 125 186 156 185 231 228 235 210 237 242 226 208 206 218 226 208 220 232 226 178 185 195 191 197 223 232 240
160 153 161 156 147 140 128 111 75 55 302 242 224 203 177 197 183 195 190 149 142 145 144 166 133 152 160 160 172 204 216 226 223 219 240 237 240 235 232 224 230 232 231 235 235 227 207 195 203 217 196 214 199 225
146 173 160 150 148 135 107 94 128 195 265 233 230 237 212 279 211 189 185 174 157 163 175 158 169 164 123 187 212 200 220 222 222 226 247 255 255 259 257 246 235 236 240 242 238 226 222 203 198 210 230 214 225 234
131 158 147 146 136 113 88 81 156 190 238 225 235 202 206 233 208 180 193 162 168 191 175 184 132 199 199 199 201 212 220 236 245 256 269 272 272 256 252 267 268 254 253 249 236 220 207 204 209 233 234 219 225 225
155 149 148 145 142 118 143 169 207 236 226 243 244 217 222 224 226 232 165 180 193 186 160 184 229 209 218 214 222 203 202 219 259 273 261 262 254 254 270 277 275 273 268 261 235 225 216 207 210 218 217 208 232 219
155 152 149 147 118 124 141 141 203 231 216 217 227 207 213 211 191 195 196 177 185 188 207 221 224 224 223 222 217 239 225 209 231 270 271 242 262 280 275 279 281 287 284 266 241 227 216 209 192 202 212 210 221 222
135 157 138 107 69 192 171 155 186 219 215 227 226 208 208 193 201 192 192 185 196 216 226 229 239 242 245 230 205 220 229 217 237 257 280 285 282 279 283 279 283 276 270 261 246 221 216 209 195 202 190 195 199 207
106 128 102 134 125 156 207 186 214 155 209 230 210 211 208 201 198 195 158 194 226 225 220 231 239 244 241 239 242 235 251 251 252 260 256 260 264 271 279 288 285 277 266 248 231 217 214 209 191 187 180 173 179 180
113 87 106 134 154 178 177 174 188 196 203 207 194 212 214 208 188 152 210 223 234 211 222 231 242 243 247 255 251 250 242 239 245 241 242 246 261 272 277 280 273 265 261 237 231 216 201 175 178 170 168 169 178 183
115 131 141 165 186 175 153 182 212 199 198 205 200 220 209 194 156 209 243 239 222 218 219 228 230 236 226 226 233 234 217 206 219 211 220 236 262 276 278 280 275 259 259 273 217 208 190 185 168 174 175 182 194 205
141 169 203 184 178 144 165 171 183 199 211 202 205 218 186 173 198 229 243 239 225 229 227 222 215 214 223 215 199 193 170 188 193 201 194 223 252 264 257 251 251 252 223 211 203 194 186 173 182 184 188 194 199 204
197 182 199 169 156 162 169 166 185 181 180 182 212 197 162 185 213 244 236 227 222 225 192 196 200 194 203 207 185 181 182 180 179 211 224 215 232 240 256 263 267 261 204 213 194 190 185 188 192 194 198 199 199 196
191 174 156 171 156 144 150 152 163 170 184 184 182 172 170 209 222 242 238 206 208 193 190 187 188 187 186 170 156 144 147 169 195 203 77 245 252 252 249 248 258 274 177 195 195 192 189 191 196 200 204 200 198 201
174 161 152 163 155 164 150 167 173 187 181 182 160 181 190 208 229 208 201 148 144 138 138 140 143 145 146 158 151 148 155 153 120 267 267 258 243 242 241 247 246 216 225 199 199 192 192 191 196 199 201 203 199 195
150 154 138 153 143 178 189 180 198 198 186 174 179 180 207 219 236 192 163 158 151 155 154 157 155 130 112 111 117 139 145 171 196 235 251 260 257 246 208 229 237 224 217 213 206 208 204 195 196 197 198 198 185 176
150 165 128 162 168 186 198 193 192 152 171 168 166 133 217 235 187 150 163 167 180 195 176 147 145 174 175 172 176 199 202 214 223 234 252 264 282 5 327 280 260 240 220 210 197 173 155 154 132 138 155 157 165 170
146 148 135 156 198 190 136 153 97 111 155 196 190 236 226 18 244 207 211 212 192 153 168 186 191 195 182 187 196 219 235 172 200 230 257 277 280 276 271 265 257 246 225 217 204 195 191 191 199 194 188 186 183 182
163 170 151 159 177 139 137 176 175 186 182 193 203 187 175 212 238 204 192 176 183 201 212 200 191 198 191 175 158 136 94 141 232 255 268 267 270 273 272 266 260 240 231 223 215 208 201 201 200 200 198 195 187 188
112 131 156 126 143 166 167 162 185 184 181 209 218 201 209 234 244 148 170 220 223 220 203 184 142 132 154 159 159 151 182 229 267 271 268 265 263 267 270 263 249 238 226 220 214 209 203 201 198 195 195 190 186 188